Cando, ND

8:57 PM CDT on August 23, 2016 (GMT -0500)
Cando

Weather History for K9D7 - December, 2012

Change the Weather History Date:

Tuesday, December 11, 2012

  Actual Average (KDVL) Record (KDVL)
Temperature  
Mean Temperature 0 °F -  
Max Temperature 5 °F 20 °F 44 °F (2002)
Min Temperature -4 °F 6 °F -16 °F (2000)
Degree Days  
Heating Degree Days 64    
Moisture  
Dew Point -4 °F    
Average Humidity 80    
Maximum Humidity 92    
Minimum Humidity 71    
Precipitation  
Precipitation 0.00 in - - ()
Sea Level Pressure  
Sea Level Pressure 29.78 in    
Wind  
Wind Speed 8 mph (NE)    
Max Wind Speed 25 mph    
Max Gust Speed 28 mph    
Visibility 9 miles    
Events Snow    
Averages and records for this station are not official NWS values.
T = Trace of Precipitation, MM = Missing Value Source: NWS Daily Summary

Daily Weather History Graph

Daily Weather History Graph

Search for Another Location

Airport or City:

Trip Planner

Search our weather history database for the weather conditions in past years. The results will help you decide how hot, cold, wet, or windy it might be!

Date:

Astronomy

Dec. 11, 2012 Rise Set
Actual Time 8:19 AM CST 4:41 PM CST
Civil Twilight 7:42 AM CST 5:18 PM CST
Nautical Twilight 7:02 AM CST 5:58 PM CST
Astronomical Twilight 6:24 AM CST 6:36 PM CST
Moon 6:11 AM CST (12/11) 3:25 PM CST (12/11)
Length of Visible Light 9h 35m
Length of Day
8h 22m
Waning Crescent, 4% of the Moon is Illuminated
Dec 11
Waning Crescent
Dec 13
New
Dec 19
First Quarter
Dec 28
Full
Jan 4
Last Quarter

Hourly Weather History & Observations

Time (CST) Temp. Windchill Dew Point Humidity Pressure Visibility Wind Dir Wind Speed Gust Speed Precip Events Conditions
12:15 AM -2.2 °F -12.5 °F -7.6 °F 78% 29.71 in 10.0 mi WNW 4.6 mph - N/A   Overcast
12:35 AM -2.2 °F -10.4 °F -4.0 °F 92% 29.71 in 10.0 mi West 3.5 mph - N/A   Overcast
12:55 AM -2.2 °F -14.2 °F -5.8 °F 85% 29.71 in 10.0 mi West 5.8 mph - N/A   Overcast
1:15 AM -2.2 °F -10.4 °F -7.6 °F 78% 29.71 in 10.0 mi NW 3.5 mph - N/A   Overcast
1:35 AM -4.0 °F -14.6 °F -7.6 °F 85% 29.72 in 10.0 mi WNW 4.6 mph - N/A   Overcast
1:55 AM -2.2 °F -15.6 °F -5.8 °F 85% 29.72 in 10.0 mi NW 6.9 mph - N/A   Overcast
2:15 AM -0.4 °F -14.7 °F -4.0 °F 85% 29.73 in 10.0 mi NW 8.1 mph - N/A   Overcast
2:35 AM 1.4 °F -12.5 °F -2.2 °F 85% 29.74 in 10.0 mi NNW 8.1 mph - N/A   Overcast
2:55 AM 1.4 °F -8.3 °F -0.4 °F 92% 29.75 in 10.0 mi North 4.6 mph - N/A   Overcast
3:15 AM 3.2 °F -9.1 °F -0.4 °F 85% 29.74 in 7.0 mi North 6.9 mph - N/A Snow Light Snow
3:35 AM 3.2 °F -12.2 °F -0.4 °F 85% 29.74 in 7.0 mi North 10.4 mph - N/A Snow Light Snow
3:55 AM 5.0 °F -10.0 °F -0.4 °F 78% 29.75 in 9.0 mi North 10.4 mph - N/A   Overcast
4:15 AM 5.0 °F -10.8 °F -0.4 °F 78% 29.75 in 10.0 mi North 11.5 mph - N/A   Overcast
4:35 AM 3.2 °F -13.1 °F -0.4 °F 85% 29.76 in 10.0 mi North 11.5 mph - N/A   Overcast
4:55 AM 1.4 °F -15.3 °F -0.4 °F 92% 29.76 in 10.0 mi North 11.5 mph - N/A   Overcast
5:15 AM 1.4 °F -16.1 °F -2.2 °F 85% 29.76 in 10.0 mi North 12.7 mph - N/A   Overcast
5:35 AM -0.4 °F -17.6 °F -4.0 °F 85% 29.76 in 10.0 mi North 11.5 mph - N/A Snow Light Snow
5:55 AM -0.4 °F -15.7 °F -4.0 °F 85% 29.77 in 10.0 mi North 9.2 mph - N/A   Mostly Cloudy
6:15 AM -2.2 °F -16.8 °F -5.8 °F 85% 29.77 in 10.0 mi North 8.1 mph - N/A Snow Light Snow
6:35 AM -2.2 °F -14.2 °F -7.6 °F 78% 29.78 in 10.0 mi NNE 5.8 mph - N/A Snow Light Snow
6:55 AM -4.0 °F -20.2 °F -7.6 °F 85% 29.78 in 10.0 mi NNE 9.2 mph - N/A   Overcast
7:15 AM -4.0 °F -20.2 °F -9.4 °F 78% 29.80 in 10.0 mi North 9.2 mph - N/A   Mostly Cloudy
7:35 AM -4.0 °F -21.2 °F -9.4 °F 78% 29.80 in 10.0 mi North 10.4 mph - N/A   Partly Cloudy
8:15 AM -4.0 °F -21.2 °F -9.4 °F 78% 29.81 in 10.0 mi North 10.4 mph - N/A   Mostly Cloudy
8:35 AM -4.0 °F -19.0 °F -9.4 °F 78% 29.81 in 10.0 mi NNW 8.1 mph - N/A   Mostly Cloudy
8:55 AM -2.2 °F -18.9 °F -9.4 °F 71% 29.81 in 10.0 mi North 10.4 mph - N/A   Mostly Cloudy
9:15 AM -2.2 °F -18.9 °F -7.6 °F 78% 29.81 in 10.0 mi North 10.4 mph - N/A   Mostly Cloudy
9:35 AM -2.2 °F -18.0 °F -7.6 °F 78% 29.82 in 10.0 mi North 9.2 mph - N/A   Scattered Clouds
9:55 AM -2.2 °F -16.8 °F -7.6 °F 78% 29.82 in 10.0 mi North 8.1 mph - N/A   Partly Cloudy
10:15 AM -2.2 °F -18.9 °F -7.6 °F 78% 29.82 in 10.0 mi North 10.4 mph - N/A   Mostly Cloudy
10:35 AM -0.4 °F -14.7 °F -7.6 °F 72% 29.83 in 10.0 mi North 8.1 mph - N/A   Scattered Clouds
10:55 AM -0.4 °F -14.7 °F -7.6 °F 72% 29.83 in 10.0 mi NNE 8.1 mph - N/A   Clear
11:15 AM -0.4 °F -10.4 °F -7.6 °F 72% 29.83 in 10.0 mi NNE 4.6 mph - N/A   Partly Cloudy
11:35 AM -0.4 °F -12.0 °F -7.6 °F 72% 29.82 in 10.0 mi NNE 5.8 mph - N/A   Scattered Clouds
11:55 AM -0.4 °F -10.4 °F -7.6 °F 72% 29.82 in 10.0 mi NNE 4.6 mph - N/A   Partly Cloudy
12:15 PM -0.4 °F -10.4 °F -7.6 °F 72% 29.82 in 10.0 mi NNE 4.6 mph - N/A   Partly Cloudy
12:35 PM -0.4 °F - -7.6 °F 72% 29.82 in 10.0 mi Calm Calm - N/A   Clear
12:55 PM -0.4 °F - -7.6 °F 72% 29.82 in 10.0 mi Calm Calm - N/A   Clear
1:15 PM -0.4 °F - -5.8 °F 78% 29.81 in 10.0 mi Calm Calm - N/A   Partly Cloudy
1:35 PM -0.4 °F - -5.8 °F 78% 29.81 in 10.0 mi Calm Calm - N/A   Partly Cloudy
1:55 PM -0.4 °F - -5.8 °F 78% 29.82 in 10.0 mi Calm Calm - N/A   Clear
2:15 PM -0.4 °F - -5.8 °F 78% 29.80 in 10.0 mi Calm Calm - N/A   Clear
2:35 PM -0.4 °F -8.3 °F -5.8 °F 78% 29.79 in 10.0 mi ESE 3.5 mph - N/A   Clear
2:55 PM -0.4 °F -8.3 °F -5.8 °F 78% 29.79 in 10.0 mi ESE 3.5 mph - N/A   Clear
3:15 PM -0.4 °F -10.4 °F -5.8 °F 78% 29.80 in 10.0 mi ESE 4.6 mph - N/A   Clear
3:35 PM -0.4 °F -12.0 °F -5.8 °F 78% 29.79 in 10.0 mi ESE 5.8 mph - N/A   Clear
3:55 PM -0.4 °F -10.4 °F -5.8 °F 78% 29.79 in 10.0 mi ESE 4.6 mph - N/A   Clear
4:15 PM -0.4 °F -10.4 °F -7.6 °F 72% 29.80 in 10.0 mi ESE 4.6 mph - N/A   Clear
4:35 PM -2.2 °F -12.5 °F -7.6 °F 78% 29.80 in 10.0 mi ESE 4.6 mph - N/A   Partly Cloudy
4:55 PM -2.2 °F -15.6 °F -7.6 °F 78% 29.80 in 10.0 mi ESE 6.9 mph - N/A   Clear
5:15 PM -2.2 °F -12.5 °F -7.6 °F 78% 29.81 in 10.0 mi East 4.6 mph - N/A   Mostly Cloudy
5:35 PM -0.4 °F -12.0 °F -4.0 °F 85% 29.80 in 10.0 mi East 5.8 mph - N/A   Overcast
5:55 PM -0.4 °F -14.7 °F -4.0 °F 85% 29.81 in 10.0 mi ESE 8.1 mph - N/A   Overcast
6:15 PM -0.4 °F -13.4 °F -2.2 °F 92% 29.81 in 10.0 mi ESE 6.9 mph - N/A   Overcast
6:35 PM 1.4 °F -12.5 °F -2.2 °F 85% 29.80 in 10.0 mi ESE 8.1 mph - N/A   Overcast
7:15 PM 1.4 °F -15.3 °F -0.4 °F 92% 29.78 in 10.0 mi ESE 11.5 mph - N/A   Overcast
7:35 PM 3.2 °F -14.6 °F -0.4 °F 85% 29.77 in 10.0 mi ESE 13.8 mph - N/A   Overcast
7:55 PM 3.2 °F -14.6 °F -0.4 °F 85% 29.76 in 10.0 mi ESE 13.8 mph - N/A   Overcast
8:15 PM 5.0 °F -13.0 °F -0.4 °F 78% 29.76 in 10.0 mi ESE 15.0 mph - N/A   Overcast
8:35 PM 5.0 °F -14.2 °F 1.4 °F 85% 29.76 in 10.0 mi ESE 17.3 mph - N/A   Mostly Cloudy
8:55 PM 5.0 °F -15.2 °F 1.4 °F 85% 29.75 in 10.0 mi ESE 19.6 mph - N/A   Overcast
9:15 PM 5.0 °F -14.2 °F -0.4 °F 78% 29.76 in 5.0 mi SE 17.3 mph - N/A   Overcast
9:35 PM 5.0 °F -13.6 °F 1.4 °F 85% 29.75 in 4.0 mi SE 16.1 mph - N/A   Overcast
9:55 PM 5.0 °F -15.7 °F 1.4 °F 85% 29.74 in 2.5 mi SE 20.7 mph 26.5 mph N/A Snow Light Snow
10:15 PM 5.0 °F -15.7 °F 1.4 °F 85% 29.73 in 2.5 mi SE 20.7 mph - N/A Snow Light Snow
10:35 PM 5.0 °F -16.7 °F -0.4 °F 78% 29.72 in 1.8 mi ESE 23.0 mph - N/A Snow Light Snow
10:55 PM 5.0 °F -16.2 °F -0.4 °F 78% 29.71 in 1.0 mi ESE 21.9 mph 27.6 mph N/A Snow Light Snow
11:15 PM 5.0 °F -15.7 °F -0.4 °F 78% 29.73 in 1.2 mi SE 20.7 mph - N/A Snow Light Snow
11:35 PM 5.0 °F -16.2 °F -0.4 °F 78% 29.71 in 0.8 mi ESE 21.9 mph - N/A Snow Light Snow
11:55 PM 5.0 °F -17.5 °F -0.4 °F 78% 29.69 in 1.0 mi ESE 25.3 mph - N/A Snow Light Snow